カタログに戻る

CZ-6A DEB

運用中SSO
NORAD 54963·DEBRIS·🇨🇳 China

打ち上げ Nov 11, 2022 から Taiyuan Satellite Launch Center

Loading…

次のパス (今後24時間)

TLE

最新Source: Space-Track

元期: Sep 14, 2026, 08:53 UTC

1 54963U 22151TC  26257.37058278 -.00000202  00000-0 -10518-3 0  9994
2 54963  98.8944 225.6252 0136823 199.9774 159.6002 13.97083302195558

AllMySatでCZ-6A DEBをリアルタイム追跡

Download on the App Store